{"data":{"norad_id":59038,"epoch":"2026-09-20T13:44:13.235424Z","epoch_age_seconds":149479,"freshness":"FRESH","line1":"1 59038U 24038R   26263.57237541 -.00003427  00000+0 -11502-3 0  9994","line2":"2 59038  43.0028   2.9170 0000909 264.4678  95.6070 15.27594930144605","mean_motion":15.2759493,"eccentricity":9.09e-5,"inclination_deg":43.0028,"raan_deg":2.917,"arg_perigee_deg":264.4678,"mean_anomaly_deg":95.607,"bstar":-0.00011502,"rev_number":14460,"period_min":94.265827394439,"perigee_km":482.38071286032,"apogee_km":483.62806836513,"semimajor_km":6861.1413906127,"source":"CELESTRAK","updated_at":"2026-09-21T09:00:34.031487Z"}}